Powrót do katalogu

STARLINK-34286

AktywnyŁącznośćVLEO
NORAD 65035·PAYLOAD·🇺🇸 United States

Wystrzelony Jul 30, 2025 z Cape Canaveral Space Force Station

Loading…

Następne Przeloty (najbliższe 24 godziny)

TLE

ŚwieżeSource: CelesTrak SupGP

Epoka: Sep 14, 2026, 23:08 UTC

1 65035C 25161W   26257.96437500 -.00051416  00000+0 -15191-2 0  2574
2 65035  53.1577 131.3609 0001319  85.7872 163.0831 15.34415662    13

Śledź STARLINK-34286 w czasie rzeczywistym z AllMySat

Download on the App Store